Content
SEND FEEDBACK

Daily
Averages
Monthly
Summary
United States of America

STATEN ISLAND, NEW YORK


Home > North America > United States > New York
Elevation: 152 feet     Latitude: 40 35N     Longitude: 074 09W

WEATHER
 
SELECT A DAY
Number of Records: 189,786;   Date Range: 1/1/95 - 8/30/14
 
SHARE

PRINT THIS DATA

[ ← Previous Day ]
WEATHER ALMANAC - JANUARY 5, 2013
[ Next Day → ]
[ °C ]   °F
Weather ElementAverageHighLow
Temperature36.8 °F44.1 °F (1:51 pm)32 °F (2:51 am)
Dewpoint19.9 °F23 °F (9:51 pm)17.1 °F (1:51 am)
Humidity51.4 %69 % (11:51 pm)38 % (1:51 pm)
Barometer30.21 in30.27 in (9:51 am)30.06 in (1:51 am)
Wind Speed9.4 mph18.4 mph (3:51 am)
Wind Gust26.5 mph (11:51 am)
Weather ElementAverage
Visibility10 mi
Wind DirectionW (267.4 °)

Weather ElementTotal
Precipitation---
Heating Degree Days27 (Base 65)
Averaged from 23 records on January 5, 2013
WEATHER CONDITIONS BREAKOUT
WIND DIRECTION BREAKOUT
WEATHER BY HOUR - JANUARY 5, 2013
[ °C ]   °F
Local TimeTemperatureDewpointHumidityBarometerVisibilityWind DirectionWind SpeedGust SpeedPrecipitationEventsConditions
1:51 AM33.1 °F17.1 °F52 %30.06 in10.0 miWest (270°)10.4 mphClear
2:51 AM32.0 °F17.1 °F54 %30.09 in10.0 miWest (280°)12.7 mphClear
3:51 AM32.0 °F17.6 °F55 %30.10 in10.0 miWNW (290°)18.4 mph23.0 mphPartly Cloudy
4:51 AM32.0 °F17.6 °F55 %30.13 in10.0 miWest (260°)11.5 mphMostly Cloudy
5:51 AM32.0 °F17.1 °F54 %30.15 in10.0 miWSW (240°)12.7 mphMostly Cloudy
6:51 AM33.8 °F17.6 °F52 %30.19 in10.0 miWSW (250°)10.4 mphMostly Cloudy
7:51 AM32.0 °F19.0 °F59 %30.21 in10.0 miWSW (250°)9.2 mphScattered Clouds
8:51 AM35.6 °F19.4 °F52 %30.26 in10.0 miWSW (240°)9.2 mph20.7 mphScattered Clouds
9:51 AM37.4 °F21.2 °F52 %30.27 in10.0 miWest (270°)10.4 mphScattered Clouds
10:51 AM41.0 °F21.0 °F45 %30.27 in10.0 miNW (310°)10.4 mph21.9 mphScattered Clouds
11:51 AM42.1 °F19.9 °F41 %30.26 in10.0 miNW (320°)15.0 mph26.5 mphScattered Clouds
12:51 PM43.0 °F19.9 °F40 %30.24 in10.0 miNW (310°)13.8 mphScattered Clouds
1:51 PM44.1 °F19.9 °F38 %30.23 in10.0 miWNW (290°)11.5 mph19.6 mphScattered Clouds
2:51 PM44.1 °F19.9 °F38 %30.24 in10.0 miNW (310°)9.2 mph16.1 mphScattered Clouds
3:51 PM43.0 °F19.0 °F38 %30.25 in10.0 miNW (310°)8.1 mphScattered Clouds
4:51 PM41.0 °F19.9 °F43 %30.24 in10.0 miNW (310°)4.6 mphScattered Clouds
5:51 PM39.9 °F19.9 °F45 %30.26 in10.0 miWest (280°)4.6 mphScattered Clouds
6:51 PM39.0 °F21.9 °F50 %30.27 in10.0 miWSW (240°)8.1 mphScattered Clouds
7:51 PM36.0 °F21.9 °F57 %30.27 in10.0 miWSW (240°)6.9 mphScattered Clouds
8:51 PM34.0 °F21.9 °F61 %30.25 in10.0 miWSW (240°)4.6 mphScattered Clouds
9:51 PM33.1 °F23.0 °F66 %30.25 in10.0 miSW (220°)4.6 mphMostly Cloudy
10:51 PM33.1 °F23.0 °F66 %30.22 in10.0 miSSW (210°)4.6 mphOvercast
11:51 PM32.0 °F23.0 °F69 %30.21 in10.0 miSSW (210°)4.6 mphOvercast
Hourly data recorded from KEWR, located miles away from Staten Island, New York







STORIES FROM OUR PARTNERS